Ukiah, CA

5:35 PM PDT on June 27, 2017 (GMT -0700)
Ukiah Municipal

Weather History for KUKI - November, 2013

Change the Weather History Date:

Thursday, November 21, 2013

  Actual Average Record
Temperature  
Mean Temperature 56 °F 49 °F  
Max Temperature 66 °F 60 °F 78 °F (1929)
Min Temperature 46 °F 38 °F 23 °F (1914)
Degree Days  
Heating Degree Days 9 16  
Month to date heating degree days 211 269  
Since 1 July heating degree days 406 469  
Cooling Degree Days 0 0  
Month to date cooling degree days 0 0  
Year to date cooling degree days 974 835  
Growing Degree Days 6 (Base 50)    
Moisture  
Dew Point 28 °F    
Average Humidity 51    
Maximum Humidity 93    
Minimum Humidity 8    
Precipitation  
Precipitation 0.00 in 0.16 in 3.16 in (1977)
Month to date precipitation 0.85 2.77  
Year to date precipitation 7.01 28.90  
Since 1 July precipitation 1.43  
Snow  
Snow 0.00 in - - ()
Month to date snowfall 0.0  
Since 1 July snowfall 0.0  
Since 1 September snowfall 0.0  
Snow Depth 0.00 in    
Sea Level Pressure  
Sea Level Pressure 29.98 in    
Wind  
Wind Speed 6 mph (NNW)    
Max Wind Speed 20 mph    
Max Gust Speed 26 mph    
Visibility 10 miles    
Events      
T = Trace of Precipitation, MM = Missing Value Source: NWS Daily Summary

Daily Weather History Graph

Daily Weather History Graph

Search for Another Location

Airport or City:

Trip Planner

Search our weather history database for the weather conditions in past years. The results will help you decide how hot, cold, wet, or windy it might be!

Date:

Astronomy

Nov. 21, 2013 Rise Set
Actual Time 7:02 AM PST 4:54 PM PST
Civil Twilight 6:33 AM PST 5:23 PM PST
Nautical Twilight 6:01 AM PST 5:55 PM PST
Astronomical Twilight 5:29 AM PST 6:27 PM PST
Moon 8:35 PM PST (11/21) 10:13 AM PST (11/21)
Length of Visible Light 10h 49m
Length of Day
9h 51m
Waning Gibbous, 84% of the Moon is Illuminated
Nov 21
Waning Gibbous
Nov 25
Last Quarter
Dec 2
New
Dec 9
First Quarter
Dec 17
Full

Hourly Weather History & Observations

Time (PST) Temp. Windchill Dew Point Humidity Pressure Visibility Wind Dir Wind Speed Gust Speed Precip Events Conditions
12:56 AM 52.0 °F - 46.9 °F 83% 29.90 in 10.0 mi Calm Calm - N/A   Overcast
1:56 AM 51.1 °F - 48.0 °F 89% 29.91 in 10.0 mi Calm Calm - N/A   Overcast
2:56 AM 51.1 °F - 46.9 °F 86% 29.91 in 10.0 mi Calm Calm - N/A   Overcast
3:56 AM 50.0 °F - 46.9 °F 89% 29.93 in 10.0 mi Calm Calm - N/A   Overcast
4:56 AM 51.1 °F - 46.9 °F 86% 29.94 in 10.0 mi Calm Calm - N/A   Overcast
5:56 AM 51.1 °F - 46.9 °F 86% 29.95 in 10.0 mi North 3.5 mph - N/A   Overcast
6:56 AM 48.0 °F - 46.0 °F 93% 29.97 in 10.0 mi NNW 3.5 mph - N/A   Overcast
7:20 AM 46.4 °F - 44.6 °F 93% 29.98 in 10.0 mi Calm Calm - N/A   Scattered Clouds
7:45 AM 46.4 °F - 44.6 °F 93% 29.99 in 10.0 mi Calm Calm - N/A   Partly Cloudy
7:56 AM 46.9 °F - 44.1 °F 90% 29.99 in 10.0 mi NNW 3.5 mph - N/A   Partly Cloudy
8:10 AM 46.4 °F 44.3 °F 44.6 °F 93% 30.00 in 10.0 mi NW 4.6 mph - N/A   Mostly Cloudy
8:26 AM 48.2 °F - 44.6 °F 87% 30.00 in 10.0 mi NNW 6.9 mph - N/A   Scattered Clouds
8:56 AM 50.0 °F - 45.0 °F 83% 30.00 in 10.0 mi ESE 3.5 mph - N/A   Clear
9:56 AM 53.1 °F - 45.0 °F 74% 29.99 in 10.0 mi Calm Calm - N/A   Clear
10:56 AM 60.1 °F - 37.9 °F 44% 29.99 in 10.0 mi North 8.1 mph - N/A   Clear
11:56 AM 64.0 °F - 19.0 °F 18% 29.97 in 10.0 mi NNE 6.9 mph - N/A   Clear
12:56 PM 64.9 °F - 7.0 °F 10% 29.97 in 10.0 mi North 10.4 mph 20.7 mph N/A   Clear
1:56 PM 66.0 °F - 3.9 °F 9% 29.96 in 10.0 mi NNE 4.6 mph 20.7 mph N/A   Clear
2:56 PM 66.0 °F - 3.9 °F 9% 29.97 in 10.0 mi NNE 12.7 mph 26.5 mph N/A   Clear
3:56 PM 64.0 °F - 3.9 °F 9% 29.99 in 10.0 mi North 12.7 mph 26.5 mph N/A   Clear
4:56 PM 60.1 °F - 7.0 °F 12% 30.01 in 10.0 mi NNW 9.2 mph 23.0 mph N/A   Clear
5:56 PM 59.0 °F - 9.0 °F 14% 30.01 in 10.0 mi NW 12.7 mph 20.7 mph N/A   Clear
6:56 PM 57.9 °F - 9.0 °F 14% 30.01 in 10.0 mi NW 12.7 mph - N/A   Clear
7:56 PM 57.9 °F - 7.0 °F 13% 30.00 in 10.0 mi WNW 12.7 mph - N/A   Clear
8:56 PM 57.0 °F - 8.1 °F 14% 30.01 in 10.0 mi West 9.2 mph - N/A   Clear
9:56 PM 57.0 °F - 6.1 °F 13% 30.02 in 10.0 mi NNW 3.5 mph - N/A   Clear
10:56 PM 55.0 °F - 7.0 °F 15% 30.03 in 10.0 mi Calm Calm - N/A   Clear
11:56 PM 54.0 °F - 8.1 °F 16% 30.01 in 10.0 mi Variable 4.6 mph - N/A   Clear